[[{"header":{"parameterUnit":"m.s-1","parameterCategory":2,"la1":30.2991,"la2":30.254,"lo1":-89.0895,"lo2":-89.0444,"dy":0.0017,"dx":0.0017,"nx":28,"ny":28,"refTime":"2023-09-22T09:00:00:Z","depth":"0","parameterNumber":2,"parameterNumberName":"U-component_of_CURRENTS"},"data":[0,0,0,0,0,0,0,0,0,0,0,0,0,0,0,0,0,0,0,0,0,0,0,0,0,0,0,0,0,0,0,0,0,0,0,0,0,0,0,0,0,0,0,0,0,0,0,0,0,0,0,0,0,0,0,0,0,0,0.2913,0.2913,0,0.2917,0.2917,0.2917,0.2901,0.2901,0.2901,0.29,0.2871,0.2871,0.287,0,0,0,0,0,0,0,0,0,0,0,0,0,0.2899,0.2899,0.2913,0.2913,0.2914,0.2917,0.2917,0.2917,0.2901,0.2901,0.29,0.29,0.2871,0.2871,0.287,0,0,0,0,0,0,0,0,0,0,0,0,0,0.2901,0.2899,0.2913,0.2908,0.2908,0.2917,0.2917,0.2916,0.2901,0.2901,0.29,0.29,0.2872,0.2871,0.287,0.2871,0,0,0.2867,0.2867,0,0,0,0,0,0,0,0,0.2901,0.2902,0.2909,0.2909,0.2908,0.2911,0.2901,0.2901,0.2901,0.2901,0.29,0.29,0.2883,0.2882,0.288,0.287,0.2869,0.2867,0.2867,0.2866,0.2866,0,0,0,0,0,0,0,0.2901,0.2901,0.2912,0.2909,0.2909,0.2908,0.2908,0.2901,0.2891,0.2901,0.29,0.2905,0.2883,0.288,0.2879,0.2868,0.2867,0.2867,0.2866,0.2866,0.2902,0.2903,0,0,0,0,0,0,0.2906,0.2901,0.2912,0.2912,0.2907,0.2909,0.2909,0.2908,0.2892,0.289,0.2906,0.2905,0.2882,0.288,0.2878,0.292,0.2866,0.2866,0.2865,0.29,0.2902,0.2904,0,0,0,0,0,0,0.2906,0.2907,0.2912,0.2909,0.291,0.291,0.2909,0.2908,0.2911,0.2896,0.2893,0.291,0.2882,0.2879,0.2884,0.2917,0.2865,0.2864,0.2899,0.2901,0.2903,0.2978,0,0,0,0,0,0,0.2905,0.2906,0.2906,0.2909,0.2911,0.2928,0.291,0.2909,0.2915,0.2914,0.2899,0.2896,0.2881,0.2886,0.2883,0.2915,0.2864,0.2897,0.29,0.2902,0.2974,0.2982,0.299,0,0,0,0,0,0.2904,0.2909,0.2906,0.2908,0.2911,0.2929,0.2929,0.2926,0.2916,0.2925,0.2916,0.2896,0.2902,0.2886,0.2883,0.2915,0.2895,0.2899,0.2902,0.297,0.2981,0.299,0,0,0,0,0,0,0.2907,0.2908,0.2905,0.2911,0.2924,0.2927,0.2936,0.2931,0.2931,0.293,0.2908,0.2905,0.2926,0.2908,0.2891,0.2935,0.2898,0.2901,0.2951,0.2961,0.2969,0.2975,0.2863,0,0,0,0,0,0.2908,0.2908,0.2917,0.2924,0.2932,0.2934,0.294,0.2941,0.2943,0.2942,0.2932,0.2928,0.2937,0.2938,0.2938,0.2955,0.2964,0.2977,0.2985,0.2992,0.2996,0.3038,0.3051,0.2915,0.2915,0.2915,0,0,0.2912,0.2913,0.2914,0.2924,0.2932,0.2953,0.2936,0.2955,0.2973,0.2939,0.2956,0.2954,0.2948,0.2974,0.2982,0.2963,0.304,0.2996,0.3002,0.3002,0.3043,0.3056,0.3068,0.2917,0.2917,0.2916,0,0,0.2927,0.2924,0.2933,0.2948,0.2966,0.2971,0.2979,0.299,0.2996,0.3014,0.3003,0.302,0.3019,0.3032,0.3036,0.3088,0.3083,0.309,0.3135,0.3177,0.3188,0.3198,0.325,0.3264,0.3093,0.3094,0.3094,0,0.2928,0.2941,0.2941,0.2962,0.2978,0.2982,0.3007,0.302,0.303,0.3043,0.303,0.3056,0.3052,0.3093,0.3117,0.3108,0.3132,0.3098,0.3188,0.3198,0.3207,0.3257,0.3272,0.3098,0.3097,0.3097,0.3096,0,0.2955,0.297,0.2982,0.3004,0.3024,0.3048,0.307,0.3091,0.3096,0.3106,0.3143,0.3142,0.3157,0.3168,0.3159,0.3226,0.3223,0.3196,0.3164,0.3226,0.3274,0.3288,0.3103,0.3102,0.3101,0.31,0,0,0.2935,0.2987,0.2989,0.3005,0.3048,0.306,0.3111,0.3148,0.3178,0.3192,0.3232,0.3257,0.3253,0.3258,0.3254,0.3292,0.3388,0.3277,0.3277,0.333,0.3497,0.3454,0.3464,0.3378,0.338,0.3382,0.3514,0,0.295,0.2989,0.3017,0.3058,0.3079,0.3115,0.3154,0.3192,0.3226,0.3266,0.3283,0.3316,0.3289,0.3306,0.3341,0.3374,0.3424,0.3356,0.3427,0.343,0.3384,0.3478,0.3291,0.3388,0.3527,0.3529,0.3531,0,0.2956,0.2982,0.3026,0.3075,0.3088,0.3118,0.3182,0.3222,0.3294,0.3324,0.3367,0.3379,0.3441,0.3405,0.3497,0.3456,0.3488,0.351,0.3515,0.3453,0.3411,0.3343,0.3407,0.3325,0.3552,0.355,0.3549,0,0.292,0.2979,0.3009,0.303,0.3095,0.3125,0.316,0.3235,0.3274,0.3369,0.3402,0.3469,0.3499,0.3553,0.3599,0.356,0.3705,0.3651,0.3645,0.3643,0.3485,0.3465,0.3473,0.3728,0.3728,0.3728,0.3727,0,0.2909,0.2931,0.2993,0.3009,0.3041,0.3101,0.3154,0.3209,0.3297,0.3351,0.3417,0.3474,0.3537,0.3615,0.365,0.3705,0.375,0.368,0.3681,0.3508,0.3489,0.3408,0.3368,0.3733,0.3731,0.3731,0.373,0,0.2861,0.2909,0.294,0.3007,0.3025,0.3047,0.3129,0.3171,0.3264,0.3344,0.3376,0.3495,0.3611,0.3681,0.3792,0.3759,0.3718,0.3834,0.3637,0.3611,0.3481,0.3451,0.3358,0.3257,0.3836,0.3836,0.3836,0,0.2836,0.2852,0.2914,0.2934,0.2964,0.301,0.3042,0.314,0.3195,0.3356,0.3387,0.3533,0.3618,0.3768,0.3778,0.3849,0.3739,0.3691,0.3567,0.3476,0.3444,0.332,0.3232,0.3403,0.34,0.3397,0.3394,0,0.2787,0.2816,0.2843,0.2883,0.2915,0.2943,0.3003,0.3034,0.3164,0.3237,0.3361,0.3452,0.3603,0.359,0.368,0.3692,0.3488,0.3629,0.3574,0.3149,0.2973,0.2874,0.3336,0.3367,0.337,0.3372,0.3373,0.3375,0.2743,0.2747,0.2792,0.2811,0.2847,0.2859,0.2838,0.2924,0.2983,0.3051,0.3228,0.3281,0.3371,0.3467,0.3472,0.3338,0.3342,0.319,0.3182,0.3083,0.2907,0.3327,0.3327,0.333,0.3332,0.3334,0.3335,0,0.2666,0.2687,0.2716,0.2729,0.2712,0.2762,0.2788,0.2743,0.2755,0.2888,0.2955,0.3011,0.301,0.308,0.303,0.2897,0.2748,0.2809,0.2575,0.2527,0.2937,0.2837,0.2679,0.268,0.268,0.268,0.268,0.268,0.2635,0.2621,0.2627,0.2572,0.2575,0.2497,0.2467,0.244,0.2486,0.2497,0.2522,0.2606,0.2782,0.2797,0.2681,0.2605,0.2397,0.2255,0.2304,0.2581,0.2615,0.2647,0.2544,0.2328,0.2328,0.1741,0.1736,0.1733]},{"header":{"parameterUnit":"m.s-1","parameterCategory":2,"la1":30.2991,"la2":30.254,"lo1":-89.0895,"lo2":-89.0444,"dy":0.0017,"dx":0.0017,"nx":28,"ny":28,"refTime":"2023-09-22T09:00:00:Z","depth":"0","parameterNumber":3,"parameterNumberName":"V-component_of_CURRENTS"},"data":[0,0,0,0,0,0,0,0,0,0,0,0,0,0,0,0,0,0,0,0,0,0,0,0,0,0,0,0,0,0,0,0,0,0,0,0,0,0,0,0,0,0,0,0,0,0,0,0,0,0,0,0,0,0,0,0,0,0,-0.0169,-0.017,0,-0.0219,-0.022,-0.0221,-0.0254,-0.0254,-0.0254,-0.0255,-0.0344,-0.0347,-0.0349,0,0,0,0,0,0,0,0,0,0,0,0,0,-0.014,-0.014,-0.0169,-0.017,-0.0171,-0.0219,-0.022,-0.0221,-0.0254,-0.0254,-0.0255,-0.0255,-0.0344,-0.0346,-0.0349,0,0,0,0,0,0,0,0,0,0,0,0,0,-0.0169,-0.0141,-0.0169,-0.0192,-0.0195,-0.0219,-0.022,-0.0221,-0.0254,-0.0254,-0.0255,-0.0255,-0.0343,-0.0346,-0.0349,-0.0366,0,0,-0.036,-0.0361,0,0,0,0,0,0,0,0,-0.0167,-0.017,-0.0188,-0.0191,-0.0194,-0.023,-0.0243,-0.0271,-0.0254,-0.0233,-0.0255,-0.0255,-0.0309,-0.0315,-0.0325,-0.037,-0.0374,-0.036,-0.0362,-0.0363,-0.0364,0,0,0,0,0,0,0,-0.0165,-0.0168,-0.019,-0.0189,-0.0192,-0.0213,-0.0217,-0.0248,-0.027,-0.0235,-0.0237,-0.0241,-0.0311,-0.0321,-0.0327,-0.0375,-0.036,-0.0363,-0.0365,-0.0366,-0.0459,-0.0459,0,0,0,0,0,0,-0.0155,-0.0166,-0.0189,-0.0192,-0.0179,-0.0213,-0.0218,-0.0219,-0.0269,-0.0277,-0.0241,-0.0242,-0.0316,-0.0323,-0.0331,-0.0365,-0.0363,-0.0367,-0.0368,-0.0458,-0.0459,-0.0459,0,0,0,0,0,0,-0.0154,-0.0156,-0.0187,-0.0179,-0.0185,-0.0213,-0.0214,-0.022,-0.023,-0.0273,-0.0282,-0.0245,-0.0316,-0.0326,-0.0359,-0.0368,-0.0368,-0.0371,-0.0458,-0.0458,-0.0459,-0.0427,0,0,0,0,0,0,-0.0153,-0.0155,-0.0153,-0.0178,-0.0185,-0.0199,-0.0214,-0.022,-0.0232,-0.0234,-0.028,-0.0288,-0.0317,-0.0354,-0.0363,-0.0373,-0.0374,-0.0457,-0.0458,-0.0459,-0.0427,-0.0426,-0.0425,0,0,0,0,0,-0.0151,-0.0147,-0.0152,-0.0155,-0.018,-0.0199,-0.0204,-0.0226,-0.0231,-0.0236,-0.0267,-0.0287,-0.0366,-0.0357,-0.0367,-0.0379,-0.0457,-0.0458,-0.0459,-0.0428,-0.0426,-0.0425,0,0,0,0,0,0,-0.0136,-0.0151,-0.0157,-0.0158,-0.0176,-0.0204,-0.0209,-0.0222,-0.0249,-0.0252,-0.0291,-0.0302,-0.0336,-0.0361,-0.035,-0.0408,-0.0415,-0.0418,-0.0388,-0.0387,-0.0386,-0.0346,-0.0377,0,0,0,0,0,-0.013,-0.0128,-0.0149,-0.015,-0.0156,-0.0181,-0.0191,-0.0205,-0.0231,-0.0243,-0.0274,-0.0311,-0.0348,-0.0369,-0.0402,-0.0432,-0.043,-0.0448,-0.0446,-0.0445,-0.0419,-0.0437,-0.0434,-0.0462,-0.0462,-0.0462,0,0,-0.0125,-0.0132,-0.0132,-0.0147,-0.0161,-0.0166,-0.0188,-0.0199,-0.0206,-0.0249,-0.027,-0.0307,-0.0354,-0.0389,-0.0406,-0.0411,-0.0436,-0.0447,-0.0445,-0.0419,-0.0437,-0.0434,-0.0432,-0.0463,-0.0463,-0.0463,0,0,-0.011,-0.0119,-0.0111,-0.0122,-0.0137,-0.0155,-0.0156,-0.0182,-0.0197,-0.0221,-0.0256,-0.029,-0.0346,-0.0378,-0.0402,-0.0414,-0.0428,-0.0438,-0.0402,-0.042,-0.0417,-0.0415,-0.0399,-0.0396,-0.044,-0.0439,-0.0439,0,-0.0097,-0.0092,-0.0113,-0.0109,-0.0111,-0.0146,-0.0138,-0.0162,-0.0197,-0.0201,-0.0222,-0.0289,-0.0335,-0.0369,-0.0379,-0.041,-0.0411,-0.0403,-0.0417,-0.0414,-0.0412,-0.0397,-0.0393,-0.0438,-0.0438,-0.0438,-0.0438,0,-0.0078,-0.0073,-0.0069,-0.0072,-0.0083,-0.0082,-0.0113,-0.0125,-0.0146,-0.0166,-0.0196,-0.0256,-0.0289,-0.0324,-0.0358,-0.0374,-0.0375,-0.0411,-0.0413,-0.0407,-0.0392,-0.0388,-0.0436,-0.0436,-0.0437,-0.0437,0,0,-0.0033,-0.0049,-0.0043,-0.0033,-0.0059,-0.0059,-0.0074,-0.0086,-0.0073,-0.0127,-0.0115,-0.0198,-0.0219,-0.0247,-0.0301,-0.0324,-0.0322,-0.0358,-0.036,-0.0328,-0.0334,-0.0312,-0.0306,-0.0365,-0.0364,-0.0364,-0.0325,0,-0.0,0.0022,0.0,0.0021,0.0031,-0.0001,-0.0004,-0.0023,-0.0044,-0.0045,-0.0108,-0.0127,-0.0197,-0.021,-0.0246,-0.0298,-0.0313,-0.0327,-0.0355,-0.0354,-0.0326,-0.0302,-0.0288,-0.0251,-0.0322,-0.0321,-0.0321,0,0.004,0.0051,0.0079,0.0085,0.0089,0.0093,0.0104,0.0096,0.0074,0.006,0.0028,-0.0022,-0.0065,-0.0127,-0.0194,-0.02,-0.0255,-0.0299,-0.0299,-0.0281,-0.0326,-0.0272,-0.0242,-0.0383,-0.0316,-0.0316,-0.0317,0,0.0101,0.0112,0.0142,0.0143,0.0137,0.0152,0.0152,0.0139,0.0157,0.0134,0.015,0.0079,0.007,-0.0022,-0.0113,-0.0158,-0.0165,-0.0244,-0.0269,-0.0267,-0.0258,-0.0256,-0.0352,-0.0281,-0.0281,-0.0281,-0.0281,0,0.0153,0.018,0.0179,0.0199,0.0247,0.022,0.0272,0.026,0.027,0.0326,0.0216,0.0251,0.0095,0.006,-0.0054,-0.012,-0.0119,-0.0234,-0.0253,-0.0247,-0.0244,-0.0369,-0.046,-0.0279,-0.028,-0.028,-0.028,0,0.0215,0.021,0.025,0.0265,0.0277,0.0316,0.0355,0.0395,0.0388,0.0461,0.0459,0.0401,0.0366,0.0228,0.0116,-0.0013,-0.0172,-0.0131,-0.009,-0.0106,-0.0294,-0.0383,-0.0463,-0.0512,-0.0166,-0.0166,-0.0165,0,0.0248,0.0275,0.0314,0.0352,0.0365,0.0416,0.0458,0.0459,0.0516,0.0574,0.0626,0.0602,0.0631,0.0475,0.0251,0.0083,-0.0086,-0.0051,-0.0151,-0.0274,-0.0389,-0.046,-0.0501,-0.0124,-0.0123,-0.0122,-0.0121,0,0.0314,0.0329,0.0365,0.0445,0.0498,0.0559,0.0627,0.0691,0.073,0.0812,0.0927,0.0957,0.0807,0.065,0.0391,0.0236,-0.0151,-0.0041,-0.0193,-0.0367,-0.0426,-0.0491,-0.0162,-0.0114,-0.0115,-0.0116,-0.0116,-0.0116,0.0373,0.0415,0.047,0.0548,0.0612,0.0709,0.0782,0.0883,0.1014,0.1158,0.1175,0.126,0.0973,0.0626,0.0407,-0.0044,-0.0075,-0.0219,-0.0312,-0.0369,-0.0433,-0.0062,-0.003,-0.003,-0.003,-0.0031,-0.0031,0,0.0451,0.0497,0.0571,0.0664,0.0752,0.0767,0.09,0.0994,0.1185,0.1334,0.146,0.1388,0.1041,0.0635,0.0041,-0.0273,-0.0408,-0.0459,-0.0585,-0.0614,-0.03,-0.0317,-0.0316,-0.0316,-0.0316,-0.0316,-0.0316,-0.0315,0.0497,0.0581,0.0615,0.077,0.084,0.0962,0.1044,0.1199,0.133,0.1536,0.1607,0.1632,0.1319,0.0289,-0.0428,-0.0598,-0.0814,-0.0857,-0.0964,-0.0795,-0.0781,-0.0768,-0.0807,-0.0908,-0.0909,-0.1237,-0.124,-0.1243]}],[{"header":{"parameterUnit":"m.s-1","parameterCategory":2,"la1":30.2991,"la2":30.254,"lo1":-89.0895,"lo2":-89.0444,"dy":0.0017,"dx":0.0017,"nx":28,"ny":28,"refTime":"2023-09-22T09:00:00:Z","depth":"2","parameterNumber":2,"parameterNumberName":"U-component_of_CURRENTS"},"data":[0,0,0,0,0,0,0,0,0,0,0,0,0,0,0,0,0,0,0,0,0,0,0,0,0,0,0,0,0,0,0,0,0,0,0,0,0,0,0,0,0,0,0,0,0,0,0,0,0,0,0,0,0,0,0,0,0,0,0.2354,0.2355,0,0.2387,0.2388,0.2388,0.2381,0.2381,0.2381,0.2381,0.2346,0.2345,0.2345,0,0,0,0,0,0,0,0,0,0,0,0,0,0.2297,0.2298,0.2354,0.2355,0.2356,0.2387,0.2388,0.2388,0.2382,0.2381,0.2381,0.238,0.2346,0.2345,0.2345,0,0,0,0,0,0,0,0,0,0,0,0,0,0.2322,0.2298,0.2354,0.2359,0.236,0.2387,0.2388,0.2388,0.2382,0.2381,0.2381,0.238,0.2346,0.2345,0.2344,0.2347,0,0,0.2341,0.2341,0,0,0,0,0,0,0,0,0.2321,0.2324,0.2357,0.2359,0.236,0.2383,0.2355,0.2372,0.2382,0.237,0.2381,0.238,0.2354,0.2353,0.2356,0.2346,0.2344,0.2341,0.2341,0.234,0.234,0,0,0,0,0,0,0,0.2319,0.2322,0.2364,0.2358,0.236,0.2363,0.2366,0.2358,0.236,0.2371,0.2371,0.238,0.2354,0.2357,0.2355,0.2344,0.2341,0.2341,0.234,0.234,0.2397,0.2399,0,0,0,0,0,0,0.2321,0.2321,0.2363,0.2365,0.2342,0.2365,0.2368,0.2373,0.2362,0.2361,0.2381,0.238,0.2359,0.2356,0.2354,0.2397,0.234,0.2339,0.2339,0.2395,0.2398,0.24,0,0,0,0,0,0,0.232,0.2325,0.2362,0.2346,0.2352,0.2367,0.2373,0.2374,0.2385,0.2371,0.2368,0.2391,0.2359,0.2355,0.2361,0.2393,0.2339,0.2338,0.2393,0.2396,0.2399,0.2456,0,0,0,0,0,0,0.2318,0.2324,0.2334,0.2347,0.2353,0.2379,0.2374,0.2375,0.2392,0.2391,0.2379,0.2375,0.2358,0.2363,0.236,0.2391,0.2337,0.239,0.2394,0.2398,0.2451,0.246,0.2468,0,0,0,0,0,0.2316,0.2332,0.2335,0.234,0.2365,0.238,0.2383,0.239,0.2393,0.2398,0.2398,0.2375,0.2387,0.2363,0.236,0.2391,0.2388,0.2393,0.2397,0.2447,0.2459,0.2468,0,0,0,0,0,0,0.2313,0.2334,0.2336,0.2358,0.2369,0.238,0.2396,0.2398,0.2404,0.2408,0.2389,0.2386,0.241,0.2395,0.237,0.2424,0.2389,0.2393,0.2428,0.2439,0.2447,0.2459,0.2337,0,0,0,0,0,0.2319,0.2337,0.235,0.2369,0.2377,0.2388,0.2399,0.2403,0.241,0.2413,0.2406,0.2411,0.2428,0.2426,0.2433,0.2448,0.2451,0.2473,0.2482,0.2489,0.25,0.2534,0.2546,0.2416,0.2415,0.2415,0,0,0.2323,0.2339,0.2348,0.237,0.2382,0.24,0.2393,0.2415,0.2428,0.2407,0.2426,0.2438,0.2441,0.2469,0.2479,0.2457,0.253,0.2495,0.2501,0.2508,0.254,0.2552,0.2563,0.2419,0.2418,0.2418,0,0,0.2338,0.2356,0.2371,0.2385,0.241,0.242,0.2428,0.2443,0.2448,0.247,0.2472,0.2503,0.2509,0.2526,0.2535,0.2595,0.2578,0.2603,0.2646,0.2679,0.269,0.2699,0.2722,0.2733,0.2601,0.2601,0.2602,0,0.2339,0.2364,0.2378,0.2399,0.2412,0.243,0.2444,0.246,0.2474,0.2492,0.2483,0.2545,0.2542,0.2593,0.2622,0.2613,0.2627,0.2601,0.2689,0.2698,0.2707,0.2728,0.2739,0.2605,0.2604,0.2604,0.2604,0,0.2362,0.2386,0.2401,0.2431,0.2444,0.2466,0.2484,0.2512,0.2529,0.2547,0.26,0.261,0.2649,0.2663,0.266,0.273,0.2719,0.2698,0.2658,0.2723,0.2741,0.2752,0.261,0.2608,0.2607,0.2607,0,0,0.235,0.2404,0.2409,0.2424,0.2463,0.2472,0.2516,0.2555,0.2596,0.2624,0.2671,0.2721,0.2739,0.2753,0.2759,0.2792,0.2865,0.2778,0.2778,0.2791,0.294,0.2887,0.2893,0.286,0.2862,0.2864,0.2928,0,0.236,0.2392,0.2423,0.2457,0.2468,0.2511,0.2551,0.2592,0.2629,0.2682,0.2722,0.2772,0.2767,0.2799,0.2833,0.2857,0.2896,0.285,0.2882,0.2883,0.2821,0.2905,0.267,0.2704,0.2939,0.294,0.2942,0,0.2364,0.2384,0.2411,0.2464,0.2476,0.251,0.2578,0.2619,0.2706,0.2743,0.2808,0.2832,0.2902,0.2882,0.296,0.2931,0.2952,0.2964,0.2966,0.2905,0.2851,0.2678,0.2714,0.2959,0.2957,0.2956,0.2955,0,0.2321,0.2375,0.2394,0.241,0.2478,0.2514,0.2562,0.2641,0.2686,0.279,0.284,0.2908,0.2958,0.2992,0.3027,0.3002,0.3103,0.3059,0.3033,0.3029,0.2829,0.2803,0.3127,0.3127,0.3126,0.3126,0.3126,0,0.2311,0.2329,0.2382,0.2397,0.2438,0.2492,0.2559,0.263,0.2727,0.2791,0.287,0.2925,0.2994,0.3048,0.3059,0.3086,0.3129,0.3065,0.3053,0.2843,0.2819,0.3033,0.3022,0.3129,0.3128,0.3128,0.3127,0,0.2266,0.2304,0.2331,0.2399,0.242,0.2452,0.2552,0.2602,0.2716,0.2802,0.2842,0.2962,0.304,0.309,0.3158,0.3131,0.3154,0.3155,0.2906,0.2864,0.3047,0.3038,0.3122,0.3121,0.312,0.3119,0.3118,0,0.2244,0.225,0.2313,0.2328,0.2366,0.2423,0.2464,0.2583,0.2631,0.281,0.2837,0.2968,0.3013,0.3099,0.3098,0.3115,0.3166,0.2902,0.2811,0.3073,0.3052,0.3044,0.3036,0.2566,0.2561,0.2557,0.2554,0,0.2195,0.2227,0.2253,0.2283,0.2321,0.236,0.2426,0.2454,0.2601,0.2666,0.2762,0.2822,0.2946,0.2859,0.2915,0.2888,0.2873,0.2818,0.3164,0.261,0.2555,0.2533,0.2542,0.2517,0.252,0.2523,0.2525,0.2527,0.2159,0.2165,0.2204,0.2219,0.2266,0.2282,0.2268,0.233,0.2376,0.2444,0.2589,0.2608,0.2668,0.2626,0.2561,0.2531,0.2722,0.2582,0.2592,0.2607,0.2536,0.2484,0.2419,0.2421,0.2424,0.2426,0.2428,0,0.208,0.2105,0.2127,0.2135,0.2133,0.2199,0.2224,0.2175,0.2153,0.2256,0.2304,0.2168,0.2134,0.2203,0.2107,0.212,0.2071,0.2024,0.1926,0.1967,0.2002,0.1897,0.1611,0.1608,0.1606,0.1603,0,0,0.2051,0.2036,0.2037,0.1991,0.2002,0.1953,0.1941,0.1892,0.1917,0.1867,0.187,0.2041,0.2143,0.1844,0.1815,0.1691,0.1807,0.1628,0.229,0.2216,0.2247,0.2342,0.2229,0,0,0,0,0]},{"header":{"parameterUnit":"m.s-1","parameterCategory":2,"la1":30.2991,"la2":30.254,"lo1":-89.0895,"lo2":-89.0444,"dy":0.0017,"dx":0.0017,"nx":28,"ny":28,"refTime":"2023-09-22T09:00:00:Z","depth":"2","parameterNumber":3,"parameterNumberName":"V-component_of_CURRENTS"},"data":[0,0,0,0,0,0,0,0,0,0,0,0,0,0,0,0,0,0,0,0,0,0,0,0,0,0,0,0,0,0,0,0,0,0,0,0,0,0,0,0,0,0,0,0,0,0,0,0,0,0,0,0,0,0,0,0,0,0,0.011,0.011,0,0.0066,0.0066,0.0065,0.0033,0.0033,0.0032,0.0032,-0.0009,-0.0009,-0.001,0,0,0,0,0,0,0,0,0,0,0,0,0,0.0129,0.0129,0.011,0.011,0.0109,0.0067,0.0066,0.0065,0.0033,0.0033,0.0032,0.0032,-0.0008,-0.0009,-0.001,0,0,0,0,0,0,0,0,0,0,0,0,0,0.0106,0.0129,0.011,0.0088,0.0086,0.0067,0.0066,0.0065,0.0033,0.0033,0.0032,0.0032,-0.0008,-0.0009,-0.0011,-0.0012,0,0,-0.0015,-0.0015,0,0,0,0,0,0,0,0,0.0107,0.0105,0.0092,0.009,0.0087,0.0055,0.0057,0.004,0.0033,0.0052,0.0032,0.0032,0.0014,0.0011,0.0002,-0.0014,-0.0016,-0.0015,-0.0016,-0.0016,-0.0016,0,0,0,0,0,0,0,0.0109,0.0107,0.0092,0.0092,0.0089,0.0068,0.0065,0.0054,0.0035,0.0051,0.0048,0.0045,0.0012,0.0003,0.0001,-0.0017,-0.0015,-0.0016,-0.0017,-0.0017,-0.0043,-0.0043,0,0,0,0,0,0,0.0118,0.0108,0.0093,0.0091,0.0098,0.0069,0.0065,0.0065,0.0035,0.003,0.0045,0.0044,0.0006,0.0002,-0.0001,0.0007,-0.0016,-0.0017,-0.0018,-0.0043,-0.0043,-0.0043,0,0,0,0,0,0,0.0119,0.0117,0.0095,0.0099,0.0095,0.0069,0.007,0.0065,0.0057,0.0031,0.0026,0.0043,0.0005,0.0001,-0.0007,0.0005,-0.0018,-0.0019,-0.0043,-0.0043,-0.0043,0.0015,0,0,0,0,0,0,0.012,0.0118,0.0121,0.01,0.0095,0.0094,0.007,0.0064,0.0056,0.0053,0.0028,0.0023,0.0005,-0.0005,-0.0009,0.0003,-0.002,-0.0043,-0.0043,-0.0043,0.0013,0.0017,0.0021,0,0,0,0,0,0.012,0.0131,0.0122,0.012,0.0101,0.0095,0.0091,0.007,0.0056,0.0061,0.0039,0.0024,-0.0007,-0.0006,-0.001,0.0001,-0.0043,-0.0043,-0.0043,0.0011,0.0016,0.0021,0,0,0,0,0,0,0.0142,0.0128,0.0118,0.0123,0.0113,0.009,0.0089,0.0075,0.006,0.0055,0.0028,0.0023,0.0018,0.0,0.0001,-0.0008,-0.0028,-0.0029,0.0014,0.0019,0.0023,0.0036,-0.0021,0,0,0,0,0,0.0149,0.0151,0.0135,0.014,0.0136,0.0113,0.0107,0.0094,0.0078,0.007,0.0051,0.0029,0.0015,0.001,-0.0007,-0.0007,-0.0032,-0.0005,-0.0001,0.0002,0.0009,-0.0022,-0.002,-0.0042,-0.0042,-0.0042,0,0,0.0158,0.0151,0.0152,0.0144,0.0132,0.0139,0.0108,0.0105,0.0114,0.0069,0.0071,0.0042,0.0017,0.0013,0.001,0.0002,-0.0004,0.0003,0.0006,0.0011,-0.0021,-0.0019,-0.0017,-0.0041,-0.0041,-0.0042,0,0,0.0183,0.0172,0.0184,0.018,0.0169,0.0157,0.016,0.014,0.0134,0.013,0.0099,0.0079,0.0058,0.0043,0.0033,0.0048,0.0015,0.0039,0.0075,0.0045,0.0047,0.0048,0.0023,0.0021,0.0044,0.0045,0.0045,0,0.0197,0.0208,0.0188,0.0199,0.0203,0.0171,0.0191,0.0182,0.0162,0.016,0.0139,0.0098,0.0075,0.0074,0.0074,0.0059,0.0034,0.0062,0.0051,0.0052,0.0052,0.0026,0.0024,0.0047,0.0047,0.0047,0.0047,0,0.023,0.024,0.0247,0.0253,0.0256,0.0265,0.0255,0.0253,0.0235,0.022,0.0207,0.0166,0.0143,0.013,0.0107,0.01,0.0079,0.0058,0.0043,0.0058,0.0029,0.0026,0.0051,0.005,0.005,0.0049,0,0,0.0264,0.027,0.0275,0.029,0.0287,0.0296,0.031,0.0315,0.0328,0.0291,0.03,0.0259,0.0223,0.0209,0.0173,0.0145,0.0122,0.0105,0.0103,0.0088,0.0057,0.0039,0.0033,0.0096,0.0096,0.0096,0.0037,0,0.0299,0.0337,0.033,0.037,0.0391,0.0373,0.0394,0.0391,0.0378,0.0377,0.0326,0.0315,0.026,0.0247,0.0211,0.0149,0.0115,0.014,0.0038,0.0035,0.0024,0.003,0.0054,0.0004,0.0033,0.0033,0.0032,0,0.0337,0.036,0.0407,0.0436,0.0444,0.0464,0.049,0.0503,0.0489,0.0476,0.0444,0.0398,0.0357,0.0303,0.0205,0.0222,0.0143,0.0087,0.0083,0.0045,0.0012,-0.0008,-0.0004,0.0026,0.0026,0.0027,0.0027,0,0.038,0.0414,0.0457,0.0466,0.0493,0.0515,0.053,0.0533,0.0557,0.0537,0.0539,0.0474,0.0451,0.0346,0.0225,0.0212,0.0111,0.0079,-0.0011,-0.0014,-0.0023,-0.0025,0.0,0.0,0.0,0.0,0.0001,0,0.0423,0.0457,0.0481,0.0508,0.0563,0.0565,0.062,0.062,0.0636,0.0675,0.0592,0.0604,0.0458,0.038,0.0254,0.012,0.0131,-0.0002,-0.0029,-0.0002,-0.0002,-0.0008,-0.0008,-0.0002,-0.0001,-0.0001,-0.0,0,0.0462,0.0476,0.0528,0.0569,0.0585,0.0626,0.0682,0.0723,0.0722,0.0771,0.0767,0.0705,0.0606,0.0449,0.029,0.0172,0.0035,-0.0022,0.0023,0.0002,-0.0079,-0.0076,-0.0126,-0.0127,-0.0128,-0.0129,-0.013,0,0.0487,0.0517,0.0575,0.0613,0.0634,0.0693,0.0741,0.0765,0.0817,0.0842,0.0875,0.0792,0.0749,0.0505,0.0285,0.0064,0.0029,-0.0064,-0.009,-0.0071,-0.0092,-0.0087,-0.0082,-0.008,-0.008,-0.008,-0.008,0,0.0535,0.0551,0.0594,0.0669,0.0727,0.0795,0.0866,0.0919,0.0963,0.1,0.1036,0.1001,0.0779,0.0563,0.0259,0.0114,-0.0028,-0.0075,-0.0064,-0.005,-0.0032,-0.0051,-0.0047,-0.0082,-0.0082,-0.0082,-0.0081,-0.0081,0.057,0.0604,0.0658,0.0728,0.0797,0.0885,0.0946,0.1026,0.1109,0.1161,0.115,0.1098,0.0864,0.0471,0.0219,-0.0044,-0.0036,-0.0135,-0.0133,-0.0131,-0.0113,-0.0097,-0.0156,-0.0157,-0.0157,-0.0157,-0.0157,0,0.061,0.0645,0.0713,0.0796,0.0871,0.0903,0.1021,0.108,0.1177,0.1226,0.1242,0.1022,0.0783,0.0508,0.0117,-0.0116,-0.0125,-0.0188,-0.0152,-0.0148,-0.0146,-0.0128,-0.0176,-0.0177,-0.0178,-0.0178,0,0,0.0631,0.0691,0.0718,0.0836,0.0899,0.1,0.1064,0.1148,0.1207,0.1237,0.1214,0.1169,0.0857,0.0569,0.0258,0.0034,-0.0003,-0.0004,0.0037,0.012,0.0126,-0.0088,-0.0053,0,0,0,0,0]}],[{"header":{"parameterUnit":"m.s-1","parameterCategory":2,"la1":30.2991,"la2":30.254,"lo1":-89.0895,"lo2":-89.0444,"dy":0.0017,"dx":0.0017,"nx":28,"ny":28,"refTime":"2023-09-22T09:00:00:Z","depth":"4","parameterNumber":2,"parameterNumberName":"U-component_of_CURRENTS"},"data":[0,0,0,0,0,0,0,0,0,0,0,0,0,0,0,0,0,0,0,0,0,0,0,0,0,0,0,0,0,0,0,0,0,0,0,0,0,0,0,0,0,0,0,0,0,0,0,0,0,0,0,0,0,0,0,0,0,0,0.1362,0.1363,0,0.1414,0.1415,0.1415,0.1459,0.146,0.1461,0.1461,0.1523,0.1524,0.1525,0,0,0,0,0,0,0,0,0,0,0,0,0,0.1299,0.13,0.1362,0.1363,0.1363,0.1414,0.1415,0.1416,0.1459,0.146,0.1461,0.1461,0.1523,0.1524,0.1526,0,0,0,0,0,0,0,0,0,0,0,0,0,0.1335,0.13,0.1362,0.1392,0.1396,0.1414,0.1415,0.1416,0.1459,0.146,0.1461,0.1462,0.1522,0.1524,0.1526,0.1519,0,0,0.1531,0.1532,0,0,0,0,0,0,0,0,0.1333,0.1337,0.1387,0.139,0.1394,0.1432,0.1416,0.1451,0.1459,0.1434,0.1461,0.1462,0.1494,0.1498,0.1504,0.1521,0.1524,0.1531,0.1532,0.1533,0.1533,0,0,0,0,0,0,0,0.1331,0.1335,0.1382,0.1388,0.1392,0.1403,0.1409,0.1422,0.1458,0.1436,0.144,0.1447,0.1496,0.1502,0.1506,0.1525,0.1531,0.1532,0.1533,0.1534,0.1625,0.1627,0,0,0,0,0,0,0.1326,0.1333,0.138,0.1383,0.1366,0.1404,0.141,0.1418,0.1457,0.1464,0.1446,0.1449,0.1499,0.1504,0.1508,0.1579,0.1533,0.1534,0.1535,0.1624,0.1625,0.1627,0,0,0,0,0,0,0.1324,0.1329,0.1378,0.136,0.1367,0.1404,0.1412,0.1419,0.1459,0.1465,0.1472,0.1483,0.15,0.1506,0.1549,0.1579,0.1535,0.1537,0.1622,0.1624,0.1626,0.1672,0,0,0,0,0,0,0.1322,0.1328,0.1348,0.136,0.1368,0.1409,0.1412,0.1419,0.146,0.1465,0.1499,0.1503,0.1501,0.1547,0.1551,0.1581,0.1538,0.162,0.1623,0.1626,0.1669,0.1676,0.1681,0,0,0,0,0,0.132,0.1334,0.1348,0.1355,0.1388,0.141,0.1416,0.1443,0.1462,0.1482,0.1509,0.1504,0.1567,0.155,0.1554,0.1585,0.1619,0.1622,0.1625,0.1666,0.1674,0.1681,0,0,0,0,0,0,0.1316,0.1341,0.1356,0.1379,0.1404,0.1419,0.1443,0.1462,0.1499,0.1513,0.1521,0.1528,0.1577,0.1576,0.1557,0.162,0.1593,0.1597,0.1622,0.163,0.1636,0.1645,0.1539,0,0,0,0,0,0.1324,0.1348,0.1368,0.1392,0.1405,0.1432,0.1451,0.147,0.1496,0.1515,0.1537,0.1563,0.1587,0.1606,0.1623,0.1657,0.1665,0.1681,0.1687,0.1692,0.1703,0.1741,0.1751,0.1637,0.1637,0.1637,0,0,0.133,0.1349,0.1363,0.1395,0.1417,0.1439,0.1447,0.1483,0.1511,0.1514,0.1568,0.1588,0.1602,0.1641,0.1663,0.1648,0.1729,0.1697,0.1701,0.1709,0.1745,0.1756,0.1766,0.164,0.1639,0.1639,0,0,0.1343,0.1371,0.1392,0.1414,0.1453,0.1467,0.1485,0.1518,0.1545,0.1592,0.1603,0.1645,0.1681,0.1697,0.1708,0.1761,0.1761,0.177,0.181,0.1846,0.1856,0.1865,0.1888,0.1898,0.1773,0.1773,0.1773,0,0.1353,0.1377,0.1402,0.1426,0.1448,0.1483,0.1506,0.1536,0.1583,0.1611,0.1618,0.1694,0.1706,0.1755,0.1776,0.1776,0.1794,0.1778,0.1854,0.1863,0.1871,0.1893,0.1904,0.1776,0.1775,0.1775,0.1775,0,0.1371,0.14,0.1415,0.1456,0.1484,0.1512,0.1548,0.159,0.163,0.166,0.173,0.1754,0.1801,0.1811,0.1813,0.1878,0.1873,0.1857,0.1834,0.1885,0.1905,0.1915,0.1779,0.1778,0.1778,0.1777,0,0,0.1359,0.1416,0.1424,0.1447,0.1503,0.1523,0.1578,0.163,0.1675,0.1731,0.179,0.1842,0.1872,0.1887,0.1899,0.1932,0.2003,0.1928,0.1929,0.1948,0.2086,0.196,0.1959,0.2007,0.2009,0.2011,0.2077,0,0.1366,0.1407,0.1438,0.1485,0.1505,0.1556,0.1601,0.166,0.1715,0.1781,0.1831,0.1893,0.1895,0.1931,0.1968,0.1996,0.2034,0.1987,0.2036,0.2037,0.1917,0.1968,0.2017,0.2084,0.2087,0.2088,0.209,0,0.1366,0.1395,0.1439,0.1497,0.1512,0.1555,0.1636,0.1683,0.1778,0.1825,0.1902,0.1945,0.2022,0.2009,0.2095,0.207,0.2092,0.2104,0.2107,0.1981,0.193,0.2023,0.2108,0.2107,0.2105,0.2104,0.2103,0,0.1331,0.1391,0.1428,0.1449,0.1523,0.1566,0.1617,0.1707,0.1753,0.187,0.1922,0.201,0.207,0.2116,0.216,0.2141,0.224,0.2207,0.2113,0.2104,0.2177,0.2167,0.227,0.227,0.227,0.227,0.2269,0,0.1306,0.1336,0.1423,0.1441,0.1495,0.156,0.1632,0.1696,0.1793,0.1852,0.1953,0.2008,0.2105,0.2169,0.219,0.2186,0.2269,0.2132,0.2117,0.2194,0.2186,0.2184,0.2173,0.2272,0.2271,0.2271,0.2271,0,0.1251,0.1308,0.1353,0.1445,0.148,0.1524,0.1631,0.1675,0.1784,0.1866,0.1911,0.2036,0.2118,0.219,0.2266,0.2211,0.2223,0.2202,0.2293,0.228,0.2055,0.2046,0.2091,0.2087,0.2084,0.2082,0.2079,0,0.1222,0.1245,0.1349,0.138,0.1427,0.1505,0.1552,0.1662,0.1707,0.1862,0.1888,0.2019,0.209,0.2097,0.218,0.221,0.2188,0.2172,0.2099,0.2058,0.2039,0.2035,0.2031,0.2074,0.2073,0.2072,0.2072,0,0.1165,0.122,0.1258,0.1325,0.1384,0.1429,0.1509,0.1528,0.1653,0.1771,0.1825,0.1875,0.1965,0.202,0.2066,0.208,0.2163,0.2137,0.2143,0.2075,0.2037,0.2021,0.2021,0.206,0.2062,0.2063,0.2064,0,0.1131,0.1142,0.1207,0.1252,0.1318,0.1333,0.1383,0.1436,0.1492,0.1658,0.1677,0.1819,0.1943,0.1955,0.1996,0.2003,0.1967,0.1887,0.1905,0.1919,0.1832,0.1757,0.1691,0,0,0,0,0,0.1089,0.1089,0.1126,0.1161,0.1219,0.1258,0.1342,0.1394,0.1518,0.1514,0.1587,0.1663,0.1728,0.1803,0.1778,0.1922,0.1974,0.1882,0.1891,0.1998,0.2011,0.1925,0,0,0,0,0,0,0.1057,0.1088,0.1093,0.1078,0.1088,0.1132,0.1181,0.1262,0.1264,0.1404,0.1453,0.1563,0.1657,0.1733,0.1749,0.1771,0.174,0.1974,0.1969,0.1991,0.2003,0.2013,0.1929,0,0,0,0,0]},{"header":{"parameterUnit":"m.s-1","parameterCategory":2,"la1":30.2991,"la2":30.254,"lo1":-89.0895,"lo2":-89.0444,"dy":0.0017,"dx":0.0017,"nx":28,"ny":28,"refTime":"2023-09-22T09:00:00:Z","depth":"4","parameterNumber":3,"parameterNumberName":"V-component_of_CURRENTS"},"data":[0,0,0,0,0,0,0,0,0,0,0,0,0,0,0,0,0,0,0,0,0,0,0,0,0,0,0,0,0,0,0,0,0,0,0,0,0,0,0,0,0,0,0,0,0,0,0,0,0,0,0,0,0,0,0,0,0,0,0.0169,0.0168,0,0.0147,0.0147,0.0147,0.013,0.0129,0.0129,0.0129,0.0099,0.0098,0.0097,0,0,0,0,0,0,0,0,0,0,0,0,0,0.0167,0.0167,0.0169,0.0168,0.0168,0.0147,0.0147,0.0147,0.013,0.0129,0.0129,0.0129,0.0099,0.0098,0.0097,0,0,0,0,0,0,0,0,0,0,0,0,0,0.0159,0.0167,0.0169,0.0157,0.0156,0.0148,0.0147,0.0147,0.013,0.0129,0.0129,0.0129,0.0099,0.0098,0.0097,0.0096,0,0,0.0094,0.0094,0,0,0,0,0,0,0,0,0.0159,0.0159,0.0159,0.0158,0.0157,0.0141,0.0135,0.0129,0.013,0.0139,0.0129,0.0129,0.0112,0.011,0.0106,0.0094,0.0093,0.0094,0.0093,0.0093,0.0093,0,0,0,0,0,0,0,0.016,0.016,0.016,0.0159,0.0157,0.0144,0.0143,0.0134,0.0127,0.0138,0.0137,0.0135,0.0111,0.0108,0.0106,0.0093,0.0094,0.0093,0.0093,0.0092,0.0082,0.0083,0,0,0,0,0,0,0.0165,0.016,0.0161,0.0159,0.0158,0.0144,0.0143,0.0146,0.0127,0.0124,0.0136,0.0135,0.0109,0.0107,0.0104,0.0118,0.0093,0.0092,0.0091,0.0082,0.0082,0.0083,0,0,0,0,0,0,0.0165,0.0165,0.0161,0.0159,0.0158,0.0145,0.0148,0.0146,0.0144,0.0125,0.0122,0.0137,0.0109,0.0106,0.01,0.0116,0.0092,0.0091,0.0082,0.0082,0.0083,0.0135,0,0,0,0,0,0,0.0165,0.0166,0.0171,0.016,0.0158,0.0164,0.0149,0.0146,0.0143,0.0142,0.0125,0.0122,0.0109,0.0102,0.0099,0.0114,0.009,0.0081,0.0082,0.0082,0.0133,0.0137,0.0141,0,0,0,0,0,0.0165,0.0177,0.0172,0.0172,0.0166,0.0164,0.0162,0.0152,0.0144,0.0148,0.0134,0.0122,0.0104,0.0101,0.0098,0.0113,0.0081,0.0082,0.0082,0.0131,0.0136,0.0141,0,0,0,0,0,0,0.0182,0.0176,0.017,0.018,0.0174,0.0162,0.0165,0.0155,0.0148,0.0146,0.0126,0.0122,0.0123,0.0109,0.0106,0.0111,0.0091,0.0091,0.0129,0.0134,0.0138,0.0144,0.0089,0,0,0,0,0,0.0187,0.0195,0.0185,0.0193,0.0192,0.0178,0.0176,0.0169,0.0159,0.0156,0.0143,0.013,0.0124,0.0121,0.0111,0.0114,0.0086,0.0121,0.0125,0.0129,0.0131,0.01,0.0101,0.0085,0.0085,0.0085,0,0,0.0196,0.0194,0.0198,0.0197,0.0191,0.0197,0.0177,0.0178,0.0187,0.0154,0.016,0.0143,0.0127,0.0131,0.013,0.0121,0.0118,0.013,0.0133,0.0133,0.0101,0.0102,0.0104,0.0086,0.0086,0.0086,0,0,0.0217,0.0215,0.0227,0.0226,0.0221,0.0214,0.0217,0.0206,0.0205,0.0207,0.0186,0.0177,0.0168,0.0159,0.0153,0.0172,0.0139,0.0171,0.02,0.017,0.0171,0.0172,0.0137,0.0134,0.0175,0.0175,0.0175,0,0.0228,0.0241,0.023,0.0241,0.0246,0.0225,0.024,0.0237,0.0227,0.0228,0.0216,0.0198,0.0183,0.0187,0.0194,0.0183,0.0156,0.0186,0.0176,0.0176,0.0176,0.0139,0.0135,0.0178,0.0177,0.0177,0.0177,0,0.0254,0.0267,0.0275,0.0283,0.0287,0.0297,0.0292,0.0295,0.0288,0.0279,0.0279,0.0253,0.0242,0.0238,0.0223,0.022,0.0198,0.0184,0.0165,0.018,0.0141,0.0136,0.0181,0.018,0.018,0.0179,0,0,0.0274,0.0291,0.0295,0.0309,0.0312,0.032,0.0337,0.0343,0.0356,0.0338,0.0348,0.0331,0.0308,0.0299,0.0276,0.0252,0.0226,0.0222,0.0219,0.019,0.0153,0.0134,0.0126,0.021,0.0209,0.0209,0.0126,0,0.0298,0.0331,0.0333,0.0368,0.0384,0.0379,0.0399,0.0402,0.0397,0.04,0.037,0.0368,0.0335,0.0331,0.0301,0.0247,0.0215,0.0249,0.014,0.0137,0.012,0.0121,0.0207,0.0122,0.0121,0.012,0.0119,0,0.0322,0.0344,0.0382,0.0416,0.0423,0.0444,0.047,0.0485,0.048,0.0475,0.0458,0.0428,0.0397,0.0364,0.0273,0.0296,0.0229,0.0181,0.0176,0.0137,0.0108,0.0103,0.011,0.011,0.0111,0.0112,0.0112,0,0.0341,0.0379,0.0414,0.0425,0.0457,0.0481,0.05,0.0509,0.053,0.0521,0.0524,0.0475,0.0455,0.037,0.0268,0.0269,0.0158,0.0145,0.0061,0.0059,0.0078,0.0078,0.0073,0.0073,0.0073,0.0074,0.0074,0,0.0364,0.0395,0.043,0.0452,0.0501,0.0514,0.0563,0.0571,0.0589,0.0611,0.0565,0.056,0.0454,0.0378,0.028,0.0155,0.0162,0.0064,0.0037,0.0101,0.0105,0.0074,0.0075,0.007,0.0071,0.0072,0.0072,0,0.0378,0.0399,0.0445,0.0492,0.0512,0.055,0.061,0.0642,0.0651,0.0676,0.0676,0.0621,0.0519,0.0399,0.0258,0.0173,0.0054,0.0005,0.0079,0.0059,-0.0029,-0.0024,-0.0094,-0.0095,-0.0096,-0.0097,-0.0098,0,0.0387,0.0411,0.0475,0.0508,0.0535,0.0593,0.0635,0.067,0.0703,0.0709,0.072,0.0639,0.0581,0.037,0.024,0.0045,0.0015,-0.005,-0.0038,-0.0027,-0.0046,-0.0039,-0.0033,-0.01,-0.01,-0.01,-0.0101,0,0.0403,0.0427,0.0464,0.0532,0.0586,0.0646,0.0707,0.0735,0.077,0.0779,0.0749,0.0645,0.0526,0.0367,0.0212,0.0074,-0.0006,-0.0062,-0.0061,-0.005,-0.0035,-0.0051,-0.0044,-0.0104,-0.0104,-0.0104,-0.0103,0,0.0415,0.044,0.0489,0.0549,0.0617,0.0676,0.0711,0.0748,0.078,0.0787,0.0773,0.0651,0.0588,0.038,0.024,0.01,0.0063,0.0018,0.0015,0.0017,0.0073,0.011,0.0061,0,0,0,0,0,0.0422,0.0447,0.0502,0.0565,0.0634,0.0674,0.0748,0.0778,0.081,0.0793,0.0787,0.0675,0.0472,0.039,0.0245,0.0206,0.0031,0.003,-0.0025,-0.0126,-0.0122,-0.0077,0,0,0,0,0,0,0.0423,0.047,0.0494,0.0567,0.0612,0.0688,0.0736,0.0762,0.0755,0.0767,0.0664,0.0627,0.0431,0.0549,0.0236,0.0196,0.0138,-0.0057,-0.0061,-0.0129,-0.0125,-0.0121,-0.0073,0,0,0,0,0]}]]